Location: Kellogg
(38.0159°N, 90.0546°W)
Time: 15:06:57
(UTC+00:00)

Courier 1B - Pass Details

Date: 16 September 2024
Orbit: 962 x 1208 km, 28.3° (Epoch: 07 October)

Event Time Altitude Azimuth Distance (km) Brightness Sun altitude
Rises 01:58:23 0° 259° (W) 4,090 11.7 -22.1°
Reaches altitude 10° 02:03:20 10° 232° (SW) 3,138 10.5 -23.0°
Maximum altitude 02:06:19 13° 210° (SSW) 2,946 10.1 -23.6°
Drops below altitude 10° 02:09:18 10° 187° (S) 3,129 10.0 -24.1°
Enters shadow 02:10:28 - 179° (S) 3,292 10.0 -24.3°
Sets 02:14:15 0° 160° (SSE) 4,066 - -25.0°
